Hourly Data Report for February 11, 2005

TORONTO CITY
ONTARIO

43°40'00.000" N
79°24'00.000" W
112.50 m
6158355
71508
XTO

Download Data

Hourly Data (February 2005)
Hourly Data Report for February 11, 2005
TIME
LST
Temp Definition
°C
Dew Point Definition
°C
Rel Hum Definition
%
Precip. Amount Definition
mm

Wind Dir Definition
10's deg

Wind Spd Definition
km/h
Visibility Definition
km
Stn Press Definition
kPa
Hmdx Definition


Wind Chill Definition


Weather Definition


00:00 -3.6 -12.5 50   LegendMM LegendMM   99.97     LegendNANA
01:00 -4.2 -13.5 48   LegendMM LegendMM   100.00     LegendNANA
02:00 -4.9 -12.2 57   LegendMM LegendMM   100.05     LegendNANA
03:00 -5.0 -11.2 62   LegendMM LegendMM   100.06     LegendNANA
04:00 -5.0 -11.1 62   LegendMM LegendMM   100.03     LegendNANA
05:00 -5.4 -11.2 64   LegendMM LegendMM   100.05     LegendNANA
06:00 -5.9 -12.1 62   LegendMM LegendMM   100.04     LegendNANA
07:00 -6.2 -12.3 62   LegendMM LegendMM   100.04     LegendNANA
08:00 -6.9 -12.2 66   LegendMM LegendMM   100.06     LegendNANA
09:00 -4.4 -9.3 69   LegendMM LegendMM   100.04     LegendNANA
10:00 -2.9 -8.4 66   LegendMM LegendMM   99.94     LegendNANA
11:00 -0.2 -7.4 58   LegendMM LegendMM   99.88     LegendNANA
12:00 -0.3 -8.1 56   LegendMM LegendMM   99.77     LegendNANA
13:00 1.7 -8.8 46   LegendMM LegendMM   99.65     LegendNANA
14:00
15:00 0.6 -6.7 58   LegendMM LegendMM   99.54     LegendNANA
16:00 -0.2 -6.7 62   LegendMM LegendMM   99.59     LegendNANA
17:00 -1.2 -5.9 70   LegendMM LegendMM   99.62     LegendNANA
18:00 -1.2 -5.7 71   LegendMM LegendMM   99.60     LegendNANA
19:00 -1.1 -5.4 73   LegendMM LegendMM   99.56     LegendNANA
20:00 -1.2 -4.4 79   LegendMM LegendMM   99.49     LegendNANA
21:00 -1.2 -3.9 82   LegendMM LegendMM   99.46     LegendNANA
22:00 -1.2 -3.9 82   LegendMM LegendMM   99.40     LegendNANA
23:00 -1.0 -3.3 84   LegendMM LegendMM   99.33     LegendNANA

Notes on Data Quality.

Legend

  • E = Estimated
  • M = Missing
  • NA = Not Available*
  • [empty] = Indicates an unobserved value
Date modified: